Showing default

INTELSAT 804, 25110

Orbit data source: Space-Track

INTELSAT 804, 25110 is a payload satellite owned by INTELSAT (US) in GEO that was launched on Sun, 21 Dec 1997 UTC via an ARIANE 42L launch vehicle from the French Guiana (FRGUI). Payload-class satellites include a variety of spacecraft equipped with specific instruments for various scientific and technological missions. These include communications satellites like Starlink; space stations such as the ISS; scientific satellites like the Hubble; Earth observation satellites from companies like Planet Labs, Umbra, and HawkEye 360; GPS; miniature CubeSats for education and research; and military/defense satellites.

Not visible in the next 10 days
Identifier
25110, 1997-083A
Orbit
GEO
Country
Flag of UnknownUnknown / ITSO
Related business
Manufacturer
LMT/EW
Mission
Non-operational Civil Communications
Bus & Motor
AS7000, 2X LEROS 1B
Mass
3,455 kg wet, 1,601 kg dry
Launch date (UTC)
1997-12-21 (28 years ago)
Launch vehicle
ARIANE 42L
Launch site
French Guiana (FRGUI)
Object type
Payload
Rocket body
Debris
Shape & HBR
Hex Poly + 2 Pan, 10.8 m
Radar Cross Section
42.091 m², Large (>1 m²)

Expand to show TLE details & history
Last TLE update: 20 hours ago

TLE from 20 hours ago
0 INTELSAT 804
1 25110U 97083A   25302.43493751  .00000020  00000-0  00000-0 0  9996
2 25110  12.9171  19.3258 0002922  30.2537 322.6016  1.00239102102017
Epoch: 2025-10-29T10:26Z
TLE epoch observation values (Epoch: 2025-10-29T10:26:18.600Z)
Latitude
-1.59708°
Longitude
177.72332°
Altitude
35,785.692 km
Speed
3.075 km/s
True Right ascension
00h 49m 14s
True Declination
-1° 35' 44"
Sunlit
Object was in daylight at epoch
Visualization orbit readout
Latitude
Unknown
Longitude
Unknown
Altitude
Unknown
Speed
Unknown
Apparent Right ascension
Unknown
Apparent Declination
Unknown
Sunlit
N/A
Visualization observer readout
Local Sidereal Time
01:41:25
Azimuth
Unknown
Elevation
Unknown
Doppler factor
Unknown
Orbital elements
Apogee altitude
35,809.075 km
Perigee altitude
35,784.428 km
Semi-major axis
42,174.889 km
Eccentricity
0.00029
Inclination
12.9171°
RAAN
19.3258°
Arg. of periapsis
30.2537°
True anomaly
322.58126°
Mean anomaly
322.6016°
Eccentric anomaly
322.59143°
Mean motion
0.25059 °/min
Orbital period
1,436.61 mins
BSTAR
0
Loading maneuver chart data...
Computing Atmospheric mass density...
Loading historical data...
Loading historical data...
Loading historical data...
Loading historical data...
Loading historical data...
Loading historical data...
Loading historical data...
Other satellites on launch #83 in the year 1997 (1997-12-21 UTC)

Documentation

Showing up to 5 results
|